Location: Unspecified
(0.0000°N, 0.0000°E)
Time: 05:21:33
(UTC+00:00)

METEOR M2 - Visible Passes

Search period start: 08 June 2023 00:00
Search period end: 18 June 2023 00:00
Orbit: 818 x 827 km, 98.4° (Epoch: 07 June)

Date Brightness Start Highest point End Pass type
(mag) Time Alt. Az. Time Alt. Az. Time Alt. Az.
08 Jun ? 05:14:25 10° NE 05:19:09 32° ESE 05:23:53 10° SSE visible
09 Jun ? 04:55:32 10° ENE 04:59:12 19° ESE 05:02:53 10° SE visible
10 Jun ? 04:38:34 10° E 04:39:17 10° ESE 04:40:00 10° ESE visible
10 Jun ? 18:55:55 10° SW 18:59:08 16° WSW 19:02:22 10° WNW visible
11 Jun ? 18:34:42 10° SSW 18:39:12 28° WSW 18:43:42 10° NW visible
13 Jun ? 05:14:30 10° NE 05:19:16 33° ESE 05:24:01 10° SSE visible
14 Jun ? 04:55:35 10° ENE 04:59:20 19° ESE 05:03:03 10° SSE visible
15 Jun ? 04:38:21 10° E 04:39:23 11° ESE 04:40:26 10° ESE visible
15 Jun ? 18:56:06 10° SW 18:59:14 16° WSW 19:02:24 10° WNW visible
16 Jun ? 18:34:50 10° SSW 18:39:18 27° WSW 18:43:46 10° NW visible
